www.pogodaiklimat.ru

Погода и климат >> Архив погоды >> Мадагаскар >> Fascene


ПОГОДА в Fascene

  • Прогноз погоды в Fascene
  • Монитор погоды в Fascene
  • Климат города

АРХИВ ПОГОДЫ в Fascene

Время (UTC), дата Ветер
(напр.,м/с)
 
Видим.   Явления Облачность Т
(С)
Тd
(С)
f
(%)
Тe
(С)
Тes
(С)
Комфортность P
(гПа)
Po
(гПа)
Тmin
(С)
Tmax
(С)
R
(мм)
R24
(мм)
S
(см)
18 11.12 Ю 1 н/о н/о +26.8 +25.2 91 +39 +39 очень
душно
1012.9 +32.8
21 11.12 Ю 1 н/о н/о +25.9 +25.9 100 +38 +38 очень
душно
1012.2
00 12.12 Ю 1 н/о н/о +25.5 +25.5 100 +37 +37 очень
душно
1011.8
03 12.12 ЮЗ 1 н/о н/о +25.1 +25.1 100 +36 +36 очень
душно
1013.6
06 12.12 ЮЗ 1 н/о н/о +28.3 +25.3 84 +41 +41 опасность
перегрева
1014.6 +25.0
09 12.12 ЮЗ 1 н/о н/о +28.2 +26.0 88 +42 +42 опасность
перегрева
1013.3
12 12.12 З 3 40 км {дождь} 6/4 600 м
[Cb cap Ac trans]
+31.6 +23.7 63 +43 +47 опасность
перегрева
1012.4 1011.3 1
15 12.12 ЮЗ 1 40 км 6/6 600 м
[Cb cap Ci sp]
+28.4 +24.2 78 +40 +40 очень
душно
1012.6 1011.5 +31.6
18 12.12 штиль 0 н/о н/о +25.6 +24.9 96 +36 +36 очень
душно
1013.8 +31.7
21 12.12 Ю 1 н/о н/о +26.2 +25.3 95 +38 +38 очень
душно
1013.8
00 13.12 штиль 0 н/о н/о +25.7 +25.5 99 +37 +37 очень
душно
1013.0
03 13.12 Ю 1 25 км осадки на расстоянии 9/9 600 м
[Cu med, cong]
+25.6 +25.6 100 +37 +37 очень
душно
1015.7 1014.6 1
06 13.12 Ю 1 н/о н/о +30.0 +24.9 74 +43 +43 опасность
перегрева
1015.0 +25.4
09 13.12 СВ 1 н/о н/о +32.3 +25.6 68 +47 +47 опасность
перегрева
1012.8
12 13.12 З 2 н/о н/о +31.9 +24.8 66 +45 +45 опасность
перегрева
1010.7
15 13.12 ЮЗ 2 40 км 8/8 600 м
[Cb cap]
+29.2 +25.4 80 +43 +43 опасность
перегрева
1012.6 1011.5 +32.6
18 13.12 штиль 0 н/о н/о +27.9 +26.7 93 +43 +43 опасность
перегрева
1013.2 +33.2
21 13.12 С 1 н/о н/о +25.5 +25.5 100 +37 +37 очень
душно
1013.4
00 14.12 Ю 1 н/о н/о +25.0 +25.0 100 +36 +36 очень
душно
1012.1
03 14.12 штиль 0 н/о н/о +24.6 +24.6 100 +34 +34 очень
душно
1013.8
06 14.12 СВ 2 н/о н/о +29.9 +25.2 76 +43 +43 опасность
перегрева
1014.8 +24.2
09 14.12 С 2 н/о н/о +32.9 +24.7 62 +46 +46 опасность
перегрева
1012.7
12 14.12 З 3 40 км 8/6 600 м
[Cb cap Ci sp]
+30.5 +24.9 72 +44 +47 опасность
перегрева
1011.9 1010.8
15 14.12 ЮЗ 1 н/о н/о +28.3 +24.5 80 +40 +40 очень
душно
1010.8
18 14.12 ЮЗ 1 н/о н/о +25.5 +25.5 100 +37 +37 очень
душно
1012.7 +33.2 3
21 14.12 штиль 0 н/о н/о +25.1 +25.1 100 +36 +36 очень
душно
1012.3
00 15.12 Ю 1 н/о н/о +25.1 +25.1 100 +36 +36 очень
душно
1011.7
03 15.12 штиль 0 35 км осадки на расстоянии {дождь} 8/6 600 м
[Cb cap Ac trans]
+25.0 +25.0 100 +36 +36 очень
душно
1013.9 1012.8 5
06 15.12 ЮЗ 2 40 км {дождь} 8/6 600 м
[Cu med, cong Ci sp]
+28.6 +26.0 86 +43 +48 опасность
перегрева
1015.1 1014.0 +25.0 +32.7 5
09 15.12 СЗ 1 40 км 6/5 600 м
[Cu med, cong Ci sp]
+29.5 +24.8 76 +42 +54 опасность
перегрева
1013.8 1012.7
12 15.12 З 2 40 км в посл. час дождь 8/4 600 м
[Cu med, cong Ci sp]
+29.9 +25.6 78 +44 +50 опасность
перегрева
1012.2 1011.1 1
15 15.12 ЮЗ 1 н/о н/о +28.1 +24.5 81 +40 +40 очень
душно
1011.1
18 15.12 штиль 0 н/о н/о +26.3 +25.8 97 +39 +39 очень
душно
1013.3 +31.3
21 15.12 ЮЗ 1 н/о н/о +23.6 +23.6 100 +32 +32 очень
душно
1013.6
00 16.12 штиль 0 н/о н/о +23.5 +23.5 100 +32 +32 очень
душно
1012.5
03 16.12 Ю 1 н/о н/о +23.9 +23.9 100 +33 +33 очень
душно
1013.2
06 16.12 З 1 н/о н/о +29.4 +24.7 76 +42 +42 опасность
перегрева
1013.3 +23.4
09 16.12 СВ 1 40 км 9/6 600 м
[Cu med, cong Ci sp]
+30.8 +25.4 73 +45 +53 опасность
перегрева
1012.8 1011.7
12 16.12 З 4 40 км 6/4 600 м
[Cb cap Ac trans Ci sp]
+29.9 +24.8 74 +43 +46 опасность
перегрева
1011.1 1010.0
15 16.12 З 3 40 км 8/6 600 м
[Cb cap Ci sp]
+28.4 +24.5 79 +40 +40 очень
душно
1011.4 1010.3 +31.3
18 16.12 С 2 н/о н/о +25.9 +23.9 89 +36 +36 очень
душно
1013.9 +31.8
21 16.12 Ю 1 н/о н/о +24.6 +24.6 100 +34 +34 очень
душно
1012.9
00 17.12 ЮЗ 1 н/о н/о +24.2 +24.2 100 +33 +33 очень
душно
1011.7
03 17.12 Ю 1 н/о н/о +24.2 +24.2 100 +33 +33 очень
душно
1013.0
06 17.12 штиль 0 н/о н/о +26.6 +26.3 98 +40 +40 очень
душно
1013.9 +23.9 2
09 17.12 З 1 40 км {дождь} 9/9 600 м
[Cu med, cong]
+26.0 +25.7 98 +38 +41 очень
душно
1013.8 1012.7 6
12 17.12 З 2 н/о н/о +30.1 +24.7 73 +43 +43 опасность
перегрева
1010.9
15 17.12 ЮЗ 3 40 км 6/6 600 м
[Cb cap]
+28.3 +24.3 79 +40 +40 очень
душно
1012.2 1011.1 +30.6
18 17.12 штиль 0 н/о н/о +25.9 +25.9 100 +38 +38 очень
душно
1013.1 +30.7
21 17.12 С 1 н/о н/о +24.3 +24.3 100 +34 +34 очень
душно
1012.5
00 18.12 Ю 1 н/о н/о +23.5 +23.5 100 +32 +32 очень
душно
1011.5 0.2
03 18.12 Ю 1 н/о н/о +23.2 +23.2 100 +33 +33 очень
душно
1013.0
06 18.12 З 1 н/о н/о +28.9 +24.0 75 +40 +40 очень
душно
1013.8 +22.8
09 18.12 З 3 н/о н/о +24.9 +23.5 92 +34 +34 очень
душно
1012.4
12 18.12 З 3 40 км {дождь} 5/4 600 м
[Cu med, cong Ci sp]
+30.6 +24.7 71 +43 +48 опасность
перегрева
1011.0 1009.9 23

 

Местоположение метеостанции Fascene (Мадагаскар): широта -13.31 долгота 48.32 высота над уровнем моря 9 м.

В архиве по умолчанию представлена погода в Fascene за последнюю неделю. Архивные данные за месяц целиком и за предыдущие месяцы, начиная с января 2011 года, Вы можете получить, выбрав интересующий диапазон дат из раскрывающегося списка и нажав кнопку "Ввод!".


*Определитесь, кто Вы:
робот инопланетянин человек

Внимание! Время в таблицах - всемирное. Для получения местного времени необходимо прибавить поправку, которая в Fascene равна 3 ч.

Смотрите также архив погоды в соседних городах и на ближайших метеорологических станциях:

Погода в Antsiranana (Мадагаскар) (151 км)
Погода в Antsohihy (Мадагаскар) (178 км)
Погода в Sambava (Мадагаскар) (227 км)
Погода в Glorieuses Island (Реюньон) (235 км)
Погода в Antalaha (Мадагаскар) (272 км)
Погода в Dzaoudzi (Коморские Острова) (334 км)
Погода в Mahajanga (Мадагаскар) (337 км)
Погода в Nosy Boraha (Мадагаскар) (449 км)
Погода в Ambohitsilaozana (Мадагаскар) (481 км)
Погода в Toamasina (Мадагаскар) (546 км)

Пояснения к столбцам:

Ветер - указаны скорость ветра в м/с - средняя за 10 мин, порывы в срок и между сроками (в фигурных скобках) и направление, откуда дует ветер: С - северный, СВ - северо-восточный, В - восточный, ЮВ - юго-восточный, Ю - южный, ЮЗ - юго-западный, З - западный, СЗ - северо-западный.
Видимость - горизонтальная дальность видимости в метрах или километрах. При видимости от 1 до 10 км при отсутствии осадков обычно наблюдается дымка, при ухудшении видимости до 1 км и менее - туман. В сухую погоду видимость может ухудшаться дымом, пылью или мглою.
Явления - указаны атмосферные явления, наблюдавшиеся в срок или в последний час перед сроком; фигурными скобками обозначены явления, наблюдавшиеся между сроками (за 1-3 часа до срока); квадратными скобками обозначены град или гололедные отложения с указанием их диаметра в мм.
Облачность - указаны через наклонную черту общая и нижняя облачность в баллах и высота нижней границы облаков в метрах; квадратными скобками обозначены формы облаков: Ci - перистые, Cs - перисто-слоистые, Cc - перисто-кучевые, Ac - высококучевые, As - высокослоистые, Sc - слоисто-кучевые, Ns - слоисто-дождевые, Cu - кучевые, Cb - кучево-дождевые. Подробнее классификацию облаков см. в Атласе облаков (PDF).
T - Температура воздуха - температура, измеренная на высоте 2 м над землей.
Td - Температура точки росы - температура, при понижении до которой содержащийся в воздухе водяной пар достигнет насыщения.
f - Относительная влажность воздуха - влажноcть воздуха, измеренная на высоте 2 м над землей.
Te - Эффективная температура - температура, которую ощущает одетый по сезону человек в тени. Характеристика душности погоды. При расчете учитывается влияние влажности воздуха и скорости ветра на теплоощущения человека.
Tes - Эффективная температура на солнце - температура, которую ощущает человек, с поправкой на солнечный нагрев. Характеристика знойности погоды. Зависит от высоты солнца над горизонтом, облачности и скорости ветра. Ночью, в пасмурную погоду, а также при ветре 12 м/с и более поправка равна нулю.
P - Атмосферное давление - приведенное к уровню моря атмосферное давление.
Po - Атмосферное давление - измеренное на уровне метеостанции атмосферное давление.
Tmin - Минимальная температура - минимум температуры воздуха на высоте 2 м над землей.
Tmax - Максимальная температура - максимум температуры воздуха на высоте 2 м над землей.
R - Количество осадков - Количество выпавших осадков за период времени, мм. При наведении курсора мыши на число - период времени, за который выпало указанное количество осадков.
R24 - Количество осадков - Количество выпавших осадков за 24 часа, мм.
S - Снежный покров - Высота снежного покрова, см. При наведении курсора мыши на число - состояние снежного покрова и степень покрытия местности в баллах.